[[{"header":{"parameterUnit":"m.s-1","parameterCategory":1,"la1":30.2992,"la2":30.254,"lo1":-89.0895,"lo2":-89.0443,"dy":0.0025,"dx":0.0025,"nx":19,"ny":19,"refTime":"2026-05-22T03:00:00:Z","depth":0,"parameterNumber":2,"parameterNumberName":"U-component_of_WINDS"},"data":[0,0,0,-1.9913,-1.9914,-1.9972,-1.9972,-2.0041,-2.0042,0,0,0,0,0,0,0,0,0,0,0,-1.9891,-1.9892,-1.9913,-1.9914,-1.9972,-1.9972,-2.0041,-2.0042,0,0,0,0,0,0,0,0,0,0,0,-1.9891,-1.9892,-1.9892,-1.9914,-1.9972,-1.9972,-2.0041,-1.9999,0,0,0,0,0,0,0,0,0,0,-1.9944,-1.992,-1.9892,-1.9892,-1.9915,-1.9972,-1.9972,-1.9997,-2.0002,-2.0012,0,-2.002,0,-2.0032,-2.0046,-2.0046,0,0,0,-1.9918,-1.9916,-1.9935,-1.9892,-1.9915,-1.9972,-1.9947,-2.0,-2.0005,-2.0018,-2.0021,-2.0023,-2.0033,-2.0046,-2.0047,-2.0093,-2.0093,0,0,-1.9914,-1.99,-1.9932,-1.9939,-1.9928,-1.9945,-1.9949,-2.0003,-2.0005,-2.0021,-2.0025,-2.0034,-2.0047,-2.0047,-2.0092,-2.0093,0,0,0,-1.9903,-1.9898,-1.9916,-1.9936,-1.9946,-1.9946,-1.9951,-2.0003,-2.001,-2.0026,-2.0035,-2.0047,-2.0048,-2.0092,-2.0092,-2.008,0,0,0,-1.9901,-1.9891,-1.9914,-1.9906,-1.9945,-1.9975,-1.9949,-2.0006,-2.0013,-2.0034,-2.0047,-2.0049,-2.0092,-2.0092,-2.008,-2.0077,0,0,0,-1.9889,-1.989,-1.9896,-1.9905,-1.9929,-1.9974,-1.9985,-2.0008,-2.0018,-2.0046,-2.0049,-2.0092,-2.0092,-2.0081,-2.0077,-2.0084,0,0,0,-1.9873,-1.9885,-1.9896,-1.9914,-1.9929,-1.9966,-1.9985,-2.0014,-2.0036,-2.0047,-2.0092,-2.0092,-2.0081,-2.0077,-2.0084,-2.0087,-2.0087,0,0,-1.9881,-1.9886,-1.9897,-1.9908,-1.994,-1.9958,-1.9989,-2.0024,-2.0041,-2.0075,-2.0076,-2.008,-2.0077,-2.0084,-2.0092,-2.0091,0,0,0,-1.9895,-1.9903,-1.9915,-1.9935,-1.9961,-1.9984,-2.0016,-2.0029,-2.0058,-2.0055,-2.0085,-2.0084,-2.0089,-2.0091,-2.0091,-2.0096,-2.0093,-2.0093,-2.0093,-1.9886,-1.9905,-1.9926,-1.9952,-1.9972,-2.0004,-2.0022,-2.0046,-2.0061,-2.0068,-2.0078,-2.008,-2.0081,-2.0081,-2.0086,-2.0081,-2.0081,-2.0081,-2.0081,-1.9899,-1.9913,-1.9932,-1.9958,-1.9979,-2.0002,-2.0034,-2.0044,-2.0069,-2.0074,-2.0079,-2.0082,-2.008,-2.0086,-2.008,-2.008,-2.008,-2.008,-2.0081,-1.9895,-1.9905,-1.992,-1.9951,-1.9973,-2.0,-2.0023,-2.0042,-2.006,-2.0065,-2.0078,-2.0078,-2.008,-2.007,-2.007,-2.007,-2.007,-2.007,-2.007,-1.9884,-1.9902,-1.9918,-1.9946,-1.9962,-1.9984,-2.0017,-2.0033,-2.0056,-2.0068,-2.0069,-2.0083,-2.0076,-2.0074,-2.007,-2.007,-2.007,-2.007,-2.007,-1.989,-1.9892,-1.9916,-1.9931,-1.9967,-1.9987,-2.0011,-2.0042,-2.0059,-2.0069,-2.0083,-2.0075,-2.0082,-2.0082,-2.008,-2.0078,-2.0078,-2.0078,-2.0078,-1.9886,-1.9891,-1.992,-1.9944,-1.9969,-1.9992,-2.002,-2.0046,-2.0074,-2.0085,-2.0088,-2.0088,-2.0087,-2.0095,-2.0095,-2.0094,-2.0095,-2.0095,-2.0095,-1.9891,-1.9899,-1.9919,-1.9944,-1.9973,-1.9998,-2.0025,-2.0052,-2.0083,-2.0096,-2.0095,-2.0094,-2.0093,-2.0092,-2.0104,-2.0104,-2.0102,0,0]},{"header":{"parameterUnit":"m.s-1","parameterCategory":1,"la1":30.2992,"la2":30.254,"lo1":-89.0895,"lo2":-89.0443,"dy":0.0025,"dx":0.0025,"nx":19,"ny":19,"refTime":"2026-05-22T03:00:00:Z","depth":0,"parameterNumber":3,"parameterNumberName":"V-component_of_WINDS"},"data":[0,0,0,6.1629,6.1631,6.1729,6.173,6.1862,6.1864,0,0,0,0,0,0,0,0,0,0,0,6.1607,6.1609,6.1629,6.1632,6.1729,6.173,6.1862,6.1864,0,0,0,0,0,0,0,0,0,0,0,6.1607,6.1608,6.161,6.1632,6.1729,6.173,6.1862,6.1785,0,0,0,0,0,0,0,0,0,0,6.1688,6.1676,6.1608,6.161,6.1633,6.1729,6.173,6.1781,6.1789,6.1822,0,6.1856,0,6.1862,6.1873,6.1874,0,0,0,6.1625,6.1669,6.1689,6.161,6.1634,6.1729,6.1684,6.1785,6.1795,6.1834,6.1857,6.1862,6.1864,6.1874,6.1875,6.209,6.2091,0,0,6.162,6.1628,6.1682,6.1696,6.1684,6.168,6.1687,6.1791,6.1816,6.1858,6.1865,6.1866,6.1875,6.1876,6.2089,6.209,0,0,0,6.1609,6.1625,6.1642,6.169,6.1708,6.1683,6.1691,6.1812,6.1817,6.1866,6.1868,6.1876,6.1878,6.2087,6.2089,6.2162,0,0,0,6.1605,6.1618,6.164,6.1646,6.1706,6.1762,6.1709,6.181,6.1821,6.1867,6.1876,6.1879,6.2086,6.2088,6.2157,6.2195,0,0,0,6.1598,6.1617,6.1634,6.1646,6.1689,6.176,6.1771,6.1812,6.1823,6.1874,6.188,6.2085,6.2088,6.2153,6.2187,6.2254,0,0,0,6.1593,6.1696,6.1635,6.1751,6.1688,6.1805,6.177,6.1856,6.1908,6.1877,6.2086,6.2089,6.2151,6.2183,6.2249,6.2311,6.2338,0,0,6.1728,6.1713,6.1781,6.1729,6.1859,6.1789,6.1929,6.1968,6.1964,6.2047,6.2053,6.2159,6.2187,6.2253,6.2487,6.2509,0,0,0,6.1826,6.1875,6.1907,6.1959,6.1993,6.2025,6.2042,6.2056,6.2127,6.201,6.2201,6.2217,6.2255,6.2285,6.2303,6.2335,6.2103,6.2103,6.2103,6.2028,6.202,6.213,6.2134,6.2184,6.2201,6.2241,6.2262,6.2237,6.2282,6.2307,6.2451,6.2485,6.2499,6.2532,6.2339,6.234,6.234,6.234,6.2225,6.2292,6.2258,6.2353,6.2343,6.2421,6.2441,6.2421,6.2491,6.2431,6.2464,6.2399,6.2523,6.2551,6.2346,6.2345,6.2344,6.2343,6.2343,6.2356,6.2387,6.2404,6.2478,6.2536,6.2534,6.2604,6.2591,6.2579,6.2612,6.2636,6.2635,6.2631,6.2625,6.2625,6.2626,6.2626,6.2626,6.2627,6.2485,6.2503,6.2565,6.261,6.2641,6.2681,6.2699,6.2729,6.2758,6.2742,6.2743,6.2712,6.2537,6.2493,6.2634,6.2633,6.2632,6.2631,6.2631,6.2687,6.264,6.2736,6.2768,6.2819,6.2877,6.286,6.2921,6.2943,6.2978,6.2941,6.2814,6.2797,6.2782,6.2745,6.2943,6.2943,6.2943,6.2943,6.2798,6.2789,6.2884,6.2935,6.2984,6.2979,6.3085,6.3099,6.3106,6.3119,6.3088,6.3039,6.3024,6.3016,6.2996,6.2961,6.321,6.321,6.3211,6.2922,6.2917,6.3011,6.302,6.3059,6.3092,6.3191,6.3249,6.3247,6.3221,6.3128,6.3117,6.3037,6.3012,6.2983,6.2953,6.289,0,0]}]]